Flag for Italy Weather past 2 weeks in Firenze, Italy

Now
46 °F

Passing clouds.


Feels Like: 42 °F
Forecast: 40 / 52 °F
Wind: 8 mph from Northeast

Location: Florence / Peretola

Current Time: Mar 6, 2015 at 9:33:13 PM

Latest Report: Mar 6, 2015 at 8:50 PM


Visibility: N/A

Pressure: 30.36 "Hg

Humidity: 43%

Dew point: 25 °F

Location of FirenzeLocation

Historic Weather in Firenze — Graph

°F

Firenze temperature yesterday

Maximum temperature yesterday: 52 °F (at 12:50 PM)
Minimum temperature yesterday: 43 °F (at 2:20 AM)
Average temperature yesterday: 48 °F

Past Weeks' High & Low Weather Summary

 TemperatureHumidityPressure
High66 °F (Mar 3, 2:20 PM)100% (Feb 22, 3:20 AM)30.39 "Hg (Feb 22, 3:20 AM)
Low28 °F (Feb 20, 4:50 AM)22% (Mar 6, 1:20 PM)29.42 "Hg (Feb 22, 6:20 AM)
Average49 °F69%29.92 "Hg
* Reported Feb 19 8:50 PM — Mar 6 8:20 PM, Firenze, Weather by CustomWeather, © 2015

Note: Actual official high and low records may vary slightly from our data, if they occured in-between our weather recording intervals... More about our weather records

Advertising

Firenze weather history for previous 24 hours

 ConditionsComfort  
Time TempWeatherWind HumidityBarometerVisibility
8:20 PM
Fri, Mar 6
46 °FPassing clouds.14 mph40%30.36 "HgN/A
7:50 PM48 °FPassing clouds.14 mph34%30.36 "HgN/A
7:20 PM50 °FPassing clouds.9 mph30%30.33 "HgN/A
6:50 PM48 °FPassing clouds.10 mph34%30.33 "HgN/A
6:20 PM50 °FPassing clouds.12 mph30%30.33 "HgN/A
5:50 PM50 °FPassing clouds.10 mph30%30.33 "HgN/A
5:20 PM50 °FSunny.17 mph30%30.30 "Hg10 mi
4:50 PM52 °FPassing clouds.10 mph28%30.33 "HgN/A
4:20 PM52 °FPassing clouds.13 mph28%30.30 "HgN/A
3:50 PM54 °FPassing clouds.10 mph26%30.30 "HgN/A
3:20 PM54 °FSunny.16 mph24%30.30 "Hg10 mi
2:50 PM54 °FPassing clouds.16 mph26%30.30 "HgN/A
2:20 PM54 °FSunny.16 mph26%30.33 "Hg10 mi
1:50 PM54 °FSunny.18 mph24%30.33 "Hg10 mi
1:20 PM54 °FSunny.17 mph22%30.33 "Hg10 mi
12:50 PM54 °FSunny.23 mph24%30.33 "Hg10 mi
12:20 PM54 °FSunny.18 mph26%30.36 "Hg10 mi
11:50 AM52 °FPassing clouds.10 mph30%30.36 "HgN/A
11:20 AM52 °FSunny.16 mph26%30.36 "Hg10 mi
10:50 AM52 °FPassing clouds.18 mph28%30.36 "HgN/A
10:20 AM50 °FPassing clouds.12 mph28%30.36 "HgN/A
9:50 AM50 °FPassing clouds.12 mph28%30.36 "HgN/A
9:20 AM48 °FSunny.22 mph29%30.33 "Hg10 mi
8:50 AM48 °FPassing clouds.16 mph32%30.33 "HgN/A
8:20 AM46 °FSunny.20 mph34%30.33 "Hg10 mi
7:50 AM46 °FPassing clouds.18 mph34%30.30 "HgN/A
7:20 AM45 °FSunny.15 mph37%30.30 "Hg10 mi
6:50 AM45 °FPassing clouds.12 mph37%30.30 "HgN/A
6:20 AM45 °FClear.14 mph34%30.30 "Hg10 mi
5:50 AM46 °FClear.21 mph32%30.27 "Hg10 mi
5:20 AM46 °FClear.18 mph29%30.27 "Hg10 mi
4:50 AM45 °FPassing clouds.18 mph34%30.27 "HgN/A
4:20 AM46 °FClear.18 mph34%30.27 "Hg10 mi
3:50 AM46 °FPassing clouds.13 mph32%30.24 "HgN/A
3:20 AM46 °FPassing clouds.17 mph34%30.24 "HgN/A
2:50 AM46 °FPassing clouds.18 mph32%30.24 "HgN/A
2:20 AM46 °FPassing clouds.22 mph32%30.24 "HgN/A
1:50 AM46 °FClear.18 mph32%30.24 "Hg10 mi
1:20 AM48 °FPassing clouds.16 mph29%30.21 "HgN/A
12:50 AM48 °FClear.21 mph29%30.21 "Hg10 mi
12:20 AM48 °FClear.21 mph29%30.18 "Hg10 mi
11:50 PM
Thu, Mar 5
48 °FClear.24 mph29%30.18 "Hg10 mi
11:20 PM48 °FPassing clouds.16 mph32%30.18 "HgN/A
10:50 PM48 °FClear.17 mph32%30.15 "Hg10 mi
10:20 PM50 °FClear.18 mph30%30.15 "Hg10 mi
9:50 PM48 °FClear.17 mph34%30.12 "Hg10 mi
9:20 PM48 °FClear.14 mph34%30.12 "Hg10 mi
Weather by CustomWeather, © 2015

See weather overviewHow to use our weather pages